Tracking 30685 objects as of 18-Jun-2025
HD Live streaming from Space Station
objects crossing your sky now

STARLINK-4614

Track STARLINK-4614 now!
10-day predictions
STARLINK-4614 is classified as:


NORAD ID: 53741
Int'l Code: 2022-107AT
Perigee: 394.4 km
Apogee: 395.6 km
Inclination: 53.2 °
Period: 92.3 minutes
Semi major axis: 6765 km
RCS: Unknown
Launch date: September 5, 2022
Source: United States (US)
Launch site: AIR FORCE EASTERN TEST RANGE (AFETR)
Your satellite tracking list
Your tracking list is empty




NASA's NSSDC Master Catalog

Two Line Element Set (TLE):
1 53741U 22107AT  25169.58335648  .00834532  00000-0  93044-2 0  9994
2 53741  53.2189 343.9271 0000950  89.3836  58.3867 15.59931773  5877
Source of the keplerian elements: AFSPC